Regional Weather Roundup
Issued by NWS

Home | Current Version | Previous Version | Graphics & Text | Print | Product List | Glossary On
Versions: 1 2 3 4 5 6 7 8 9 10 11 12 13 14 15 16 17 18 19 20 21 22 23 24 25 26 27 28 29 30 31 32 33 34 35 36 37 38 39 40 41 42 43 44 45 46 47 48 49 50
000
ASUS45 KTFX 010410
RWRMT
MONTANA REGIONAL WEATHER ROUNDUP
NATIONAL WEATHER SERVICE GREAT FALLS MT
1000 PM MDT SAT APR 30 2016

NOTE: "FAIR" INDICATES FEW OR NO CLOUDS BELOW 12000 FEET WITH NO
SIGNIFICANT WEATHER AND/OR OBSTRUCTIONS TO VISIBILITY.

MTZ001>007-043-010500-
WEST OF THE DIVIDE

CITY           SKY/WX    TMP DP  RH WIND       PRES   REMARKS
KALISPELL      CLOUDY    56  33  42 NE7       30.27R
MISSOULA       CLOUDY    50  43  77 SE7       30.28R
BUTTE          CLOUDY    43  29  57 NE13      30.28R
MULLAN PASS    CLOUDY    39  30  70 CALM      30.29R
ANACONDA         N/A     43  34  70 N6        30.29R
DEER LODGE       N/A     45  36  70 N5        30.31R
EUREKA           N/A     52  32  46 S3        30.28R
HAMILTON         N/A     48  39  71 N5        30.26R
LIBBY            N/A     54  39  58 SE5       30.27R
PLAINS           N/A     48  41  77 CALM      30.25R
$$

MTZ008-052>055-010500-
SOUTHWEST MONTANA

CITY           SKY/WX    TMP DP  RH WIND       PRES   REMARKS
BOZEMAN        CLOUDY    45  30  55 CALM      30.29R
DILLON         CLOUDY    41  31  67 NE14      30.23R
ENNIS          CLOUDY    39  32  75 N16G23    30.29R WCI  30
THREE FORKS      N/A     47  20  34 CALM      30.25R
TWIN BRIDGES     N/A     43  28  55 N14       30.19R
$$

MTZ009-010-012-014-046-048-049-054-010500-
EAST SLOPES AND CENTRAL MONTANA

CITY           SKY/WX    TMP DP  RH WIND       PRES   REMARKS
CUT BANK       MOCLDY    46  36  68 CALM      30.33R
GREAT FALLS    CLOUDY    42  33  70 E6        30.32R
HELENA         CLOUDY    45  36  70 CALM      30.30R
CHOTEAU          N/A     43  41  93 CALM      30.33R
CONRAD           N/A     47  43  86 N3        30.32R
$$

MTZ011-013-016-021-045-047-050-051-010500-
NORTH CENTRAL MONTANA

CITY           SKY/WX    TMP DP  RH WIND       PRES   REMARKS
HAVRE          CLEAR     46  36  68 E3        30.32R
LEWISTOWN      CLOUDY    46  35  65 CALM      30.33R
N BAR RANCH    CLOUDY    41  34  75 W3        30.35R
CHINOOK          N/A     46  37  71 CALM      30.32R
$$

MTZ017>020-022>027-061-062-010500-
NORTHEAST MONTANA

CITY           SKY/WX    TMP DP  RH WIND       PRES   REMARKS
GLASGOW        CLEAR     47  31  53 E7        30.31R
JORDAN           N/A     45  36  70 CALM      30.30R
SIDNEY         CLEAR     43  30  61 NW5       30.31R
WOLF POINT     CLEAR     46  34  62 NE6       30.31R
PLENTYWOOD       N/A     46  25  42 NE7       30.32R
POPLAR           N/A     46  30  53 E8        30.32R
SCOBEY           N/A     42  21  43 E1        30.29R
$$

MTZ028>42-056>058-010500-
SOUTHCENTRAL AND SOUTHEAST MONTANA

CITY           SKY/WX    TMP DP  RH WIND       PRES   REMARKS
BAKER          CLEAR     38  30  73 E5        30.30R
BILLINGS       CLOUDY    48  35  60 N3        30.31R
LIVINGSTON     CLOUDY    42  35  76 NE6       30.30R
MILES CITY     CLEAR     48  32  53 NE6       30.28R
EKALAKA          N/A     40  27  60 E3        30.24R
FORSYTH          N/A     46  36  66 CALM      30.29R
LAUREL           N/A     46  28  49 CALM      30.26R
ROUNDUP          N/A     47  33  58 CALM      30.20R
$$

REGIONAL REPORTS...DAKOTAS

CITY           SKY/WX    TMP DP  RH WIND       PRES   REMARKS
WILLISTON      CLEAR     40  31  70 N6        30.30R
MINOT          CLEAR     46  26  45 N5        30.29R
DICKINSON      CLEAR     43  26  51 NE6       30.27R
BEACH            N/A     39  32  75 CALM      30.33R
CROSBY           N/A     41  25  52 SE6       30.35R
TIOGA            N/A     41  27  56 NE3       30.36R
WATFORD CITY     N/A     37  32  81 SW3       30.30R
BISMARCK       CLEAR     48  31  51 NE8       30.26R
GRAND FORKS    PTCLDY    50  28  42 NE12      30.25S
FARGO          CLOUDY    51  27  39 NE14      30.20R
BUFFALO SD       N/A     41  29  62 N9        30.21R
RAPID CITY     CLOUDY    38  30  73 N10       30.22R WCI  31
$$

REGIONAL REPORTS...WYOMING/IDAHO/WASHINGTON

CITY           SKY/WX    TMP DP  RH WIND       PRES   REMARKS
GILLETTE       CLOUDY    41  31  67 NE9       30.25R
SHERIDAN       CLOUDY    43  36  76 CALM      30.29R
BUFFALO WY       N/A    N/A N/A N/A MISG      30.29R
CODY           CLOUDY    43  30  61 N12G20    30.27R
YELLOWSTONE LA   N/A     34  23  64 VRB3      30.27R
IDAHO FALLS    CLOUDY    50  31  48 N10       30.09R
SALMON         CLOUDY    46  39  76 CALM      30.21R
BOISE          CLOUDY    55  37  50 NW13      30.06R
SPOKANE        PTCLDY    55  44  66 NW5       30.25R
$$

REGIONAL REPORTS...ALBERTA

CITY           SKY/WX    TMP DP  RH WIND       PRES   REMARKS
EDMONTON       PTCLDY    52  30  43 SW6       30.22R
CALGARY        PTCLDY    48  30  49 S6        30.30R
LETHBRIDGE     PTCLDY    52  34  50 S7        30.31R
MEDICINE HAT   PTCLDY    50  39  66 S5        30.31R
WATERTON GATE    N/A     45  37  76 E2          N/A
CARDSTON         N/A     48  36  61 S7          N/A
MILK RIVER       N/A     41  37  87 S1          N/A
ONEFOUR          N/A     46  34  61 NE3         N/A
$$

REGIONAL REPORTS...SASKATCHEWAN

CITY           SKY/WX    TMP DP  RH WIND       PRES   REMARKS
SWIFT CURRENT  CLEAR     46  27  46 S7        30.30R
REGINA         PTCLDY    50  23  34 SE7       30.32S
SASKATOON      PTCLDY    50  27  40 S9        30.29R
CYPRESS HILLS    N/A     45  28  53 SW2         N/A
VAL MARIE        N/A     39  30  70 NW3         N/A
ROCKGLEN         N/A     46  25  42 SE5         N/A
ASSINIBOIA       N/A     52  32  46 S8          N/A
$$



USA.gov is the U.S. government's official web portal to all federal, state and local government web resources and services.